Weather History for KAEJ - April, 2014

Change the Weather History Date:

Friday, April 18, 2014

  Actual Average (KLXV) Record (KLXV)
Temperature  
Mean Temperature 48 °F -  
Max Temperature 67 °F 44 °F 57 °F (1981)
Min Temperature 28 °F 19 °F 1 °F (2013)
Degree Days  
Heating Degree Days 18 33  
Month to date heating degree days 642  
Since 1 July heating degree days 9625  
Cooling Degree Days 0 0  
Month to date cooling degree days 0  
Year to date cooling degree days 0  
Moisture  
Dew Point 22 °F    
Average Humidity 42    
Maximum Humidity 78    
Minimum Humidity 13    
Precipitation  
Precipitation 0.00 in 0.04 in 0.28 in (1992)
Month to date precipitation 0.65  
Year to date precipitation 2.91  
Sea Level Pressure  
Sea Level Pressure 30.14 in    
Wind  
Wind Speed 5 mph (West)    
Max Wind Speed 21 mph    
Max Gust Speed 36 mph    
Visibility 10 miles    
Events      
T = Trace of Precipitation, MM = Missing Value Source: NWS Daily Summary

Daily Weather History Graph

Daily Weather History Graph

Search for Another Location

Airport or City:

Trip Planner

Search our weather history database for the weather conditions in past years. The results will help you decide how hot, cold, wet, or windy it might be!

Date:

Astronomy

Apr. 18, 2014 Rise Set
Actual Time 6:23 AM MDT 7:44 PM MDT
Civil Twilight 5:56 AM MDT 8:12 PM MDT
Nautical Twilight 5:22 AM MDT 8:45 PM MDT
Astronomical Twilight 4:48 AM MDT 9:20 PM MDT
Moon 11:31 PM MDT (4/18) 8:49 AM MDT (4/18)
Length of Visible Light 14h 16m
Length of Day
13h 20m
Waning Gibbous, 86% of the Moon is Illuminated
Apr 18
Waning Gibbous
Apr 22
Last Quarter
Apr 29
New
May 6
First Quarter
May 14
Full

Hourly Weather History & Observations

Time (MDT) Temp. Windchill Dew Point Humidity Pressure Visibility Wind Dir Wind Speed Gust Speed Precip Events Conditions
12:15 AM 36.9 °F - 24.4 °F 61% 30.16 in 10.0 mi Calm Calm - N/A   Clear
12:35 AM 36.7 °F 32.9 °F 24.6 °F 62% 30.17 in 10.0 mi WSW 4.6 mph - N/A   Clear
12:55 AM 36.7 °F - 25.7 °F 64% 30.17 in 10.0 mi Calm Calm - N/A   Clear
1:15 AM 35.1 °F - 27.1 °F 73% 30.17 in 10.0 mi Calm Calm - N/A   Clear
1:55 AM 35.8 °F 31.9 °F 25.2 °F 65% 30.19 in 10.0 mi WNW 4.6 mph - N/A   Clear
2:15 AM 35.1 °F 31.0 °F 23.5 °F 63% 30.19 in 10.0 mi NNW 4.6 mph - N/A   Clear
2:35 AM 35.2 °F 25.4 °F 23.0 °F 61% 30.19 in 10.0 mi West 16.1 mph 21.9 mph N/A   Clear
2:55 AM 35.8 °F 30.9 °F 21.9 °F 57% 30.19 in 10.0 mi WNW 5.8 mph - N/A   Clear
3:15 AM 34.9 °F 32.0 °F 22.1 °F 60% 30.19 in 10.0 mi NNW 3.5 mph - N/A   Clear
3:35 AM 34.9 °F 27.1 °F 21.9 °F 59% 30.19 in 10.0 mi WSW 10.4 mph - N/A   Clear
3:55 AM 33.4 °F 30.4 °F 22.3 °F 64% 30.19 in 10.0 mi ENE 3.5 mph - N/A   Clear
4:15 AM 34.2 °F 29.0 °F 21.6 °F 60% 30.19 in 10.0 mi NW 5.8 mph - N/A   Clear
4:35 AM 33.3 °F - 22.1 °F 64% 30.19 in 10.0 mi Calm Calm - N/A   Clear
4:55 AM 32.9 °F 28.5 °F 22.1 °F 65% 30.19 in 10.0 mi West 4.6 mph - N/A   Clear
5:15 AM 32.0 °F 24.8 °F 22.5 °F 68% 30.19 in 10.0 mi WNW 8.1 mph - N/A   Clear
5:35 AM 31.8 °F - 22.3 °F 68% 30.19 in 10.0 mi Calm Calm - N/A   Clear
5:55 AM 31.3 °F 27.9 °F 22.1 °F 69% 30.20 in 10.0 mi WSW 3.5 mph - N/A   Clear
6:15 AM 28.8 °F 23.7 °F 22.3 °F 77% 30.21 in 10.0 mi NW 4.6 mph - N/A   Clear
6:35 AM 28.8 °F 25.0 °F 22.6 °F 78% 30.21 in 10.0 mi NNW 3.5 mph - N/A   Clear
6:55 AM 29.5 °F 25.9 °F 23.4 °F 78% 30.21 in 10.0 mi NW 3.5 mph - N/A   Clear
7:15 AM 33.8 °F - 24.1 °F 68% 30.21 in 10.0 mi Calm Calm - N/A   Clear
7:35 AM 37.0 °F 34.5 °F 24.4 °F 60% 30.22 in 10.0 mi NW 3.5 mph - N/A   Clear
7:55 AM 37.6 °F 35.1 °F 25.0 °F 60% 30.21 in 10.0 mi NNW 3.5 mph - N/A   Clear
8:15 AM 39.6 °F 36.3 °F 25.7 °F 58% 30.21 in 10.0 mi North 4.6 mph - N/A   Clear
8:35 AM 41.0 °F - 25.0 °F 53% 30.21 in 10.0 mi Calm Calm - N/A   Clear
8:55 AM 43.7 °F - 23.7 °F 45% 30.20 in 10.0 mi Calm Calm - N/A   Clear
9:15 AM 46.0 °F - 21.9 °F 39% 30.19 in 10.0 mi Calm Calm - N/A   Clear
9:35 AM 47.8 °F - 22.1 °F 36% 30.19 in 10.0 mi Calm Calm - N/A   Clear
9:55 AM 49.1 °F - 21.9 °F 34% 30.19 in 10.0 mi Calm Calm - N/A   Clear
10:15 AM 51.4 °F - 21.9 °F 32% 30.19 in 10.0 mi SE 5.8 mph - N/A   Clear
10:35 AM 53.6 °F - 21.7 °F 29% 30.18 in 10.0 mi ESE 5.8 mph - N/A   Clear
10:55 AM 55.9 °F - 21.7 °F 27% 30.18 in 10.0 mi SE 9.2 mph - N/A   Clear
11:15 AM 58.1 °F - 21.9 °F 25% 30.17 in 10.0 mi ESE 10.4 mph - N/A   Clear
11:35 AM 58.8 °F - 20.8 °F 23% 30.16 in 10.0 mi ESE 6.9 mph - N/A   Clear
11:55 AM 59.4 °F - 21.9 °F 24% 30.15 in 10.0 mi East 3.5 mph - N/A   Clear
12:15 PM 61.7 °F - 23.0 °F 23% 30.14 in 10.0 mi ENE 5.8 mph - N/A   Clear
12:35 PM 63.3 °F - 22.8 °F 21% 30.13 in 10.0 mi East 9.2 mph - N/A   Clear
12:55 PM 64.6 °F - 19.2 °F 18% 30.11 in 10.0 mi East 6.9 mph 16.1 mph N/A   Scattered Clouds
1:15 PM 65.8 °F - 19.9 °F 17% 30.11 in 10.0 mi West 5.8 mph 21.9 mph N/A   Scattered Clouds
1:35 PM 66.6 °F - 14.2 °F 13% 30.11 in 10.0 mi WSW 20.7 mph 27.6 mph N/A   Clear
1:55 PM 66.2 °F - 12.7 °F 13% 30.11 in 10.0 mi WSW 17.3 mph 35.7 mph N/A   Clear
2:15 PM 65.8 °F - 12.9 °F 13% 30.09 in 10.0 mi SSW 12.7 mph 27.6 mph N/A   Clear
2:35 PM 67.8 °F - 14.7 °F 13% 30.09 in 10.0 mi SW 13.8 mph 21.9 mph N/A   Clear
2:55 PM 65.5 °F - 14.0 °F 14% 30.09 in 10.0 mi SW 8.1 mph - N/A   Clear
3:15 PM 65.7 °F - 14.2 °F 14% 30.07 in 10.0 mi WSW 16.1 mph 26.5 mph N/A   Scattered Clouds
3:35 PM 65.5 °F - 14.4 °F 14% 30.07 in 10.0 mi West 13.8 mph 23.0 mph N/A   Scattered Clouds
3:55 PM 64.4 °F - 15.6 °F 15% 30.06 in 10.0 mi SW 16.1 mph 21.9 mph N/A   Mostly Cloudy
4:15 PM 65.3 °F - 16.0 °F 15% 30.05 in 10.0 mi South 9.2 mph 20.7 mph N/A   Mostly Cloudy
4:35 PM 63.5 °F - 16.9 °F 17% 30.05 in 10.0 mi South 16.1 mph - N/A   Scattered Clouds
4:55 PM 64.8 °F - 16.7 °F 16% 30.05 in 10.0 mi South 17.3 mph 27.6 mph N/A   Scattered Clouds
5:15 PM 63.7 °F - 18.0 °F 17% 30.05 in 10.0 mi WSW 18.4 mph 26.5 mph N/A   Clear
5:35 PM 60.1 °F - 23.7 °F 25% 30.07 in 10.0 mi West 18.4 mph 29.9 mph N/A   Clear
5:55 PM 59.2 °F - 24.3 °F 26% 30.07 in 10.0 mi West 12.7 mph 23.0 mph N/A   Scattered Clouds
6:15 PM 60.1 °F - 22.8 °F 24% 30.07 in 10.0 mi West 16.1 mph 21.9 mph N/A   Scattered Clouds
6:55 PM 59.4 °F - 22.1 °F 24% 30.07 in 10.0 mi West 12.7 mph 20.7 mph N/A   Clear
7:15 PM 57.9 °F - 22.6 °F 26% 30.07 in 10.0 mi West 11.5 mph - N/A   Clear
7:35 PM 56.7 °F - 23.0 °F 27% 30.07 in 10.0 mi West 4.6 mph - N/A   Clear
7:55 PM 54.5 °F - 22.8 °F 29% 30.07 in 10.0 mi WSW 8.1 mph - N/A   Clear
8:15 PM 51.6 °F - 24.8 °F 35% 30.08 in 10.0 mi WNW 8.1 mph - N/A   Clear
8:35 PM 48.6 °F - 27.0 °F 43% 30.09 in 10.0 mi NW 5.8 mph - N/A   Clear
8:55 PM 47.1 °F - 28.0 °F 48% 30.09 in 10.0 mi West 5.8 mph - N/A   Clear
9:15 PM 45.7 °F 43.4 °F 28.4 °F 51% 30.10 in 10.0 mi West 4.6 mph - N/A   Clear
9:35 PM 45.1 °F 40.3 °F 27.7 °F 50% 30.11 in 10.0 mi WNW 9.2 mph - N/A   Scattered Clouds
9:55 PM 49.1 °F - 25.9 °F 40% 30.11 in 10.0 mi NW 3.5 mph - N/A   Mostly Cloudy
10:15 PM 48.4 °F - 26.6 °F 43% 30.11 in 10.0 mi Calm Calm - N/A   Mostly Cloudy
10:35 PM 46.9 °F - 27.9 °F 48% 30.11 in 10.0 mi Calm Calm - N/A   Clear
10:55 PM 43.9 °F 39.3 °F 28.8 °F 55% 30.11 in 10.0 mi WNW 8.1 mph 11.5 mph N/A   Scattered Clouds
11:15 PM 43.0 °F - 28.4 °F 56% 30.11 in 10.0 mi Calm Calm - N/A   Scattered Clouds
11:35 PM 43.3 °F 39.2 °F 27.7 °F 54% 30.11 in 10.0 mi West 6.9 mph - N/A   Clear
11:55 PM 42.6 °F 39.9 °F 27.7 °F 56% 30.12 in 10.0 mi NE 4.6 mph - N/A   Clear